When you browse on this site, cookies collect data to enhance your experience and personalize the content and advertising you see.
Visit our Privacy Policy to learn more. By continuing to use the site, you agree to this use of cookies and data.
  • En España
  • Lista de países
  • Para 7 días
  • Temperatura del agua
  • Mapa Satelital
  • El tiempo en el mapa
  • Informadores
  • user-avatar
    Iniciar sesión

    Tiempo cada hora Neuquén

    Hoy, 24 Julio, Miércoles

    Tiempo Temperatura Precipitaciones Viento Presión Humedad
    00:00 +5°C° 0 mm 1 mps 742 mmHg 45%
    01:00 +5°C° 0 mm 1 mps 742 mmHg 47%
    02:00 +5°C° 0 mm 1 mps 742 mmHg 47%
    03:00 +5°C° 0 mm 1 mps 742 mmHg 48%
    04:00 +5°C° 0 mm 1 mps 742 mmHg 49%
    05:00 +4°C° 0 mm 1 mps 742 mmHg 51%
    06:00 +4°C° 0 mm 1 mps 742 mmHg 53%
    07:00 +4°C° 0 mm 1 mps 742 mmHg 54%
    08:00 +6°C° 0 mm 1 mps 742 mmHg 47%
    09:00 +8°C° 0 mm 1 mps 742 mmHg 41%
    10:00 +11°C° 0 mm 1 mps 743 mmHg 34%
    11:00 +12°C° 0 mm 2 mps 742 mmHg 31%
    12:00 +13°C° 0 mm 2 mps 741 mmHg 29%
    13:00 +13°C° 0 mm 3 mps 741 mmHg 26%
    14:00 +13°C° 0 mm 3 mps 740 mmHg 27%
    15:00 +13°C° 0 mm 3 mps 740 mmHg 28%
    16:00 +13°C° 0 mm 2 mps 740 mmHg 29%
    17:00 +12°C° 0 mm 3 mps 740 mmHg 32%
    18:00 +11°C° 0 mm 3 mps 740 mmHg 35%
    19:00 +10°C° 0 mm 4 mps 740 mmHg 38%
    20:00 +8°C° 0 mm 4 mps 739 mmHg 43%
    21:00 +8°C° 0 mm 4 mps 739 mmHg 47%
    22:00 +7°C° 0 mm 5 mps 739 mmHg 52%
    23:00 +7°C° 0 mm 4 mps 738 mmHg 55%

    Mañana, 25 Julio, Jueves

    Tiempo Temperatura Precipitaciones Viento Presión Humedad
    00:00 +6°C° 0 mm 4 mps 738 mmHg 59%
    01:00 +6°C° 0 mm 4 mps 738 mmHg 62%
    02:00 +5°C° 0 mm 4 mps 738 mmHg 63%
    03:00 +5°C° 0 mm 4 mps 737 mmHg 64%
    04:00 +5°C° 0 mm 4 mps 737 mmHg 66%
    05:00 +4°C° 0 mm 4 mps 736 mmHg 66%
    06:00 +4°C° 0 mm 4 mps 736 mmHg 66%
    07:00 +4°C° 0 mm 3 mps 736 mmHg 66%
    08:00 +7°C° 0 mm 3 mps 736 mmHg 57%
    09:00 +8°C° 0 mm 3 mps 736 mmHg 49%
    10:00 +10°C° 0 mm 3 mps 737 mmHg 40%
    11:00 +12°C° 0 mm 2 mps 736 mmHg 36%
    12:00 +13°C° 0 mm 2 mps 736 mmHg 33%
    13:00 +14°C° 0 mm 2 mps 735 mmHg 30%
    14:00 +14°C° 0 mm 2 mps 735 mmHg 31%
    15:00 +13°C° 0 mm 2 mps 735 mmHg 31%
    16:00 +13°C° 0 mm 2 mps 735 mmHg 32%
    17:00 +11°C° 0 mm 3 mps 736 mmHg 35%
    18:00 +11°C° 0 mm 3 mps 736 mmHg 37%
    19:00 +10°C° 0 mm 3 mps 736 mmHg 40%
    20:00 +8°C° 0 mm 4 mps 737 mmHg 42%
    21:00 +8°C° 0 mm 5 mps 737 mmHg 44%
    22:00 +8°C° 0 mm 6 mps 738 mmHg 47%
    23:00 +7°C° 0 mm 6 mps 738 mmHg 49%

    Pasado mañana, 26 Julio, Viernes

    Tiempo Temperatura Precipitaciones Viento Presión Humedad
    00:00 +7°C° 0 mm 5 mps 738 mmHg 50%
    01:00 +7°C° 0 mm 5 mps 738 mmHg 52%
    02:00 +6°C° 0 mm 5 mps 738 mmHg 53%
    03:00 +6°C° 0 mm 5 mps 738 mmHg 54%
    04:00 +5°C° 0 mm 6 mps 738 mmHg 54%
    05:00 +5°C° 0 mm 6 mps 739 mmHg 56%
    06:00 +6°C° 0 mm 5 mps 739 mmHg 59%
    07:00 +6°C° 0 mm 5 mps 739 mmHg 61%
    08:00 +7°C° 0 mm 5 mps 740 mmHg 57%
    09:00 +8°C° 0 mm 5 mps 740 mmHg 54%
    10:00 +10°C° 0 mm 5 mps 740 mmHg 50%
    11:00 +12°C° 0 mm 5 mps 740 mmHg 46%
    12:00 +12°C° 0 mm 5 mps 740 mmHg 41%
    13:00 +13°C° 0 mm 4 mps 739 mmHg 37%
    14:00 +13°C° 0 mm 4 mps 739 mmHg 38%
    15:00 +12°C° 0 mm 3 mps 739 mmHg 40%
    16:00 +13°C° 0 mm 2 mps 739 mmHg 41%
    17:00 +12°C° 0 mm 2 mps 740 mmHg 44%
    18:00 +10°C° 0 mm 2 mps 740 mmHg 48%
    19:00 +10°C° 0 mm 1 mps 740 mmHg 51%
    20:00 +9°C° 0 mm 1 mps 740 mmHg 53%
    21:00 +9°C° 0 mm 1 mps 740 mmHg 55%
    22:00 +7°C° 0 mm 0 mps 740 mmHg 57%
    23:00 +7°C° 0 mm 0 mps 740 mmHg 57%

    27 Julio, Sábado

    Tiempo Temperatura Precipitaciones Viento Presión Humedad
    00:00 +8°C° 0 mm 1 mps 740 mmHg 58%
    01:00 +8°C° 0 mm 1 mps 740 mmHg 58%
    02:00 +7°C° 0 mm 1 mps 739 mmHg 59%
    03:00 +6°C° 0 mm 2 mps 739 mmHg 60%
    04:00 +6°C° 0 mm 2 mps 739 mmHg 61%
    05:00 +6°C° 0 mm 2 mps 739 mmHg 61%
    06:00 +5°C° 0 mm 3 mps 739 mmHg 62%
    07:00 +5°C° 0 mm 3 mps 739 mmHg 63%
    08:00 +7°C° 0 mm 3 mps 739 mmHg 58%
    09:00 +8°C° 0 mm 4 mps 739 mmHg 53%
    10:00 +10°C° 0 mm 4 mps 739 mmHg 48%
    11:00 +10°C° 0 mm 5 mps 738 mmHg 44%
    12:00 +13°C° 0 mm 5 mps 738 mmHg 40%
    13:00 +14°C° 0 mm 6 mps 737 mmHg 36%
    14:00 +14°C° 0 mm 5 mps 737 mmHg 36%
    15:00 +14°C° 0 mm 5 mps 736 mmHg 37%
    16:00 +13°C° 0 mm 4 mps 736 mmHg 38%
    17:00 +13°C° 0 mm 5 mps 736 mmHg 40%
    18:00 +12°C° 0 mm 5 mps 736 mmHg 42%
    19:00 +12°C° 0 mm 5 mps 736 mmHg 45%
    20:00 +10°C° 0 mm 5 mps 736 mmHg 46%
    21:00 +11°C° 0 mm 4 mps 735 mmHg 48%
    22:00 +10°C° 0 mm 4 mps 735 mmHg 49%
    23:00 +10°C° 0 mm 3 mps 735 mmHg 50%

    28 Julio, Domingo

    Tiempo Temperatura Precipitaciones Viento Presión Humedad
    00:00 +10°C° 0 mm 3 mps 734 mmHg 51%
    01:00 +10°C° 0 mm 3 mps 734 mmHg 52%
    02:00 +10°C° 0 mm 3 mps 734 mmHg 53%
    03:00 +9°C° 0 mm 3 mps 734 mmHg 54%
    04:00 +9°C° 0 mm 2 mps 733 mmHg 55%
    05:00 +9°C° 0 mm 2 mps 733 mmHg 55%
    06:00 +9°C° 0 mm 2 mps 734 mmHg 56%
    07:00 +9°C° 0 mm 2 mps 734 mmHg 56%
    08:00 +10°C° 0 mm 2 mps 734 mmHg 50%
    09:00 +12°C° 0 mm 2 mps 734 mmHg 45%
    10:00 +13°C° 0 mm 2 mps 734 mmHg 39%
    11:00 +13°C° 0 mm 3 mps 734 mmHg 36%
    12:00 +14°C° 0 mm 3 mps 733 mmHg 34%
    13:00 +16°C° 0 mm 3 mps 733 mmHg 31%
    14:00 +16°C° 0 mm 3 mps 733 mmHg 32%
    15:00 +16°C° 0 mm 2 mps 733 mmHg 33%
    16:00 +16°C° 0 mm 2 mps 733 mmHg 35%
    17:00 +14°C° 0 mm 1 mps 733 mmHg 37%
    18:00 +13°C° 0 mm 1 mps 734 mmHg 40%
    19:00 +12°C° 0 mm 1 mps 734 mmHg 43%
    20:00 +12°C° 0 mm 1 mps 734 mmHg 44%
    21:00 +12°C° 0 mm 1 mps 734 mmHg 45%
    22:00 +11°C° 0 mm 1 mps 734 mmHg 45%
    23:00 +11°C° 0 mm 1 mps 734 mmHg 47%

    29 Julio, Lunes

    Tiempo Temperatura Precipitaciones Viento Presión Humedad
    00:00 +11°C° 0 mm 1 mps 734 mmHg 49%
    01:00 +10°C° 0 mm 1 mps 734 mmHg 51%
    02:00 +9°C° 0 mm 2 mps 734 mmHg 52%
    03:00 +9°C° 0 mm 2 mps 734 mmHg 52%
    04:00 +9°C° 0 mm 3 mps 734 mmHg 52%
    05:00 +9°C° 0 mm 3 mps 734 mmHg 55%
    06:00 +8°C° 0 mm 2 mps 734 mmHg 58%
    07:00 +8°C° 0 mm 2 mps 734 mmHg 61%
    08:00 +10°C° 0 mm 4 mps 734 mmHg 53%
    09:00 +13°C° 0 mm 5 mps 734 mmHg 46%
    10:00 +15°C° 0 mm 6 mps 734 mmHg 39%
    11:00 +16°C° 0 mm 7 mps 733 mmHg 36%
    12:00 +17°C° 0 mm 8 mps 733 mmHg 32%
    13:00 +18°C° 0 mm 9 mps 732 mmHg 29%
    14:00 +18°C° 0 mm 7 mps 732 mmHg 30%
    15:00 +19°C° 0 mm 5 mps 732 mmHg 31%
    16:00 +19°C° 0 mm 4 mps 732 mmHg 32%
    17:00 +18°C° 0 mm 3 mps 731 mmHg 35%
    18:00 +17°C° 0 mm 3 mps 731 mmHg 38%
    19:00 +16°C° 0 mm 2 mps 731 mmHg 41%
    20:00 +15°C° 0 mm 4 mps 731 mmHg 41%
    21:00 +15°C° 0 mm 5 mps 731 mmHg 41%
    22:00 +15°C° 0 mm 6 mps 730 mmHg 40%
    23:00 +15°C° 0 mm 7 mps 730 mmHg 41%
    Mostrar más